Location: Unspecified
(40.7945°N, 0.0000°E)
Time: 08:40:50
(UTC+00:00)

UWE-3 - Pass Details

Date: 16 August 2020
Orbit: 585 x 683 km, 97.6° (Epoch: 22 September)

Event Time Altitude Azimuth Distance (km) Brightness Sun altitude
Rises 04:32:32 0° 20° (NNE) 2,819 ? -7.7°
Reaches altitude 10° 04:34:48 10° 28° (NNE) 1,915 ? -7.3°
Maximum altitude 04:38:42 40° 98° (E) 881 ? -6.6°
Drops below altitude 10° 04:42:37 10° 168° (SSE) 1,923 ? -5.9°
Sets 04:44:54 0° 176° (S) 2,832 ? -5.5°
